Regional Weather Roundup
Issued by NWS

Home | Current Version | Previous Version | Graphics & Text | Print | Product List | Glossary On
Versions: 1 2 3 4 5 6 7 8 9 10 11 12 13 14 15 16 17 18 19 20 21 22 23 24 25 26 27 28 29 30 31 32 33 34 35 36 37 38 39 40 41 42 43 44 45 46 47 48 49 50
000
ASUS43 KIND 282309
RWRIN

WEATHER ROUNDUP FOR INDIANA
NATIONAL WEATHER SERVICE INDIANAPOLIS IN
700 PM EDT THU AUG 28 2014

NOTE: "FAIR" INDICATES FEW OR NO CLOUDS BELOW 12,000 FEET WITH NO
SIGNIFICANT WEATHER AND/OR OBSTRUCTIONS TO VISIBILITY.

* - STATION DOES NOT REPORT WEATHER SUCH AS PRECIPITATION OR FOG.

+ - STATION NOT QUALITY CONTROLLED BY THE NATIONAL WEATHER SERVICE.
    USE DATA WITH CAUTION...ESPECIALLY DEWPOINT AND RELATIVE
    HUMIDITY OBSERVATIONS.

INZ001>003-010>013-019-020-290000-
NORTHWEST INDIANA

CITY           SKY/WX    TMP DP  RH WIND       PRES   REMARKS
GARY /AIRPORT/ MOSUNNY   75  64  69 NE12      30.07S
KNOX *+        SUNNY     78  63  59 SE5       30.05S
LA PORTE +     MOSUNNY   77  62  60 SE5       30.07S
MICHIGAN CITY+ MOSUNNY   72  61  68 N5        30.07R
MONTICELLO +   SUNNY     79  65  62 E3        30.04R
RENSSELAER +   SUNNY     79  63  57 E3        30.05S
VALPARAISO     MOSUNNY   78  62  57 SE5       30.06S

$$

LMZ046-743>745-290000-
SOUTHERN LAKE MICHIGAN

STATION/POSITION TIME  TEMP WIND        PRES
                       AIR  DIR/SP/G
                 (UTC) (F)  (DEG/KT/KT) (MB)
MICHIGAN CITY    2300   71   20/ 11/ 12   N/A

$$

INZ004-005-014>016-021>024-290000-
NORTH CENTRAL INDIANA

CITY           SKY/WX    TMP DP  RH WIND       PRES   REMARKS
GOSHEN         MOSUNNY   78  61  55 E7        30.07S
LOGANSPORT +   SUNNY     79  63  57 E7        30.06S
PERU/GRISSOM   MOSUNNY   78  69  72 E7        30.06R
ROCHESTER +    SUNNY     79  64  61 E7        30.07S
SOUTH BEND     MOSUNNY   79  59  50 SE9       30.07S
WARSAW +       MOSUNNY   77  63  61 E6        30.07S

$$

INZ006>009-017-018-025>027-290000-
NORTHEAST INDIANA

CITY           SKY/WX    TMP DP  RH WIND       PRES   REMARKS
ANGOLA *+      MOSUNNY   75  66  73 SE3       30.09S
AUBURN +       MOSUNNY   77  57  50 E3        30.09R
FORT WAYNE     MOSUNNY   76  62  62 E6        30.08S
HUNTINGTON +   SUNNY     75  64  68 E3        30.07S

$$

INZ028-029-035-036-043>045-051>053-290000-
WEST CENTRAL INDIANA

CITY           SKY/WX    TMP DP  RH WIND       PRES   REMARKS
GREENCASTLE +  SUNNY     81  64  57 CALM      30.04R
LAFAYETTE      SUNNY     79  66  64 E7        30.03S
TERRE HAUTE    SUNNY     83  69  62 NE7       30.01S

$$

INZ030>032-037>040-046>048-054>057-064-065-290000-
CENTRAL INDIANA

CITY           SKY/WX    TMP DP  RH WIND       PRES   REMARKS
CP ATTERBURY + SUNNY     82  66  57 E3        30.03R
COLUMBUS       MOSUNNY   82  68  61 E7        30.02S
FRANKFORT +    SUNNY     80  67  64 E5        30.06S
INDIANAPOLIS   MOSUNNY   82  65  56 E8        30.03R
-EAGLE CREEK   SUNNY     82  62  50 SE7       30.03R
KOKOMO *+      SUNNY     79  64  61 SE6       30.05S
MARION +       SUNNY     77  63  61 E9        30.07R
MT COMFORT *+  MOSUNNY   79  66  65 E5        30.05S
SHELBYVILLE    SUNNY     83  66  56 E6        30.03S
ZIONSVILLE +   SUNNY     81  64  57 E8        30.05S

$$

INZ033-034-041-042-049-050-058-059-290000-
EAST CENTRAL INDIANA

CITY           SKY/WX    TMP DP  RH WIND       PRES   REMARKS
MUNCIE         SUNNY     78  63  59 E8        30.06S

$$

INZ060-061-067>069-081>083-085>088-290000-
SOUTHWEST INDIANA

CITY           SKY/WX    TMP DP  RH WIND       PRES   REMARKS
EVANSVILLE     CLOUDY    85  72  65 W6        29.99R
WASHINGTON +   MOSUNNY   87  73  62 E7        29.99R

$$

INZ062-063-066-070>080-084-089>092-290000-
SOUTH CENTRAL AND SOUTHEAST INDIANA

CITY           SKY/WX    TMP DP  RH WIND       PRES   REMARKS
BEDFORD +      SUNNY     84  66  54 E7        30.01
BLOOMINGTON    MOSUNNY   84  68  58 E7        30.02R
NORTH VERNON + SUNNY     84  68  58 CALM      30.03R

$$




USA.gov is the U.S. government's official web portal to all federal, state and local government web resources and services.